Year,Month,Day,Hour,Minute,Value (Times are PST for temperature in C)
2008,12,16,00,00,-8.00
2008,12,16,00,01,-8.00
2008,12,16,00,02,-8.00
2008,12,16,00,03,-8.00
2008,12,16,00,04,-8.10
2008,12,16,00,05,-8.10
2008,12,16,00,07,-8.10
2008,12,16,00,09,-8.10
2008,12,16,00,10,-8.10
2008,12,16,00,11,-8.10
2008,12,16,00,12,-8.10
2008,12,16,00,13,-8.10
2008,12,16,00,14,-8.20
2008,12,16,00,15,-8.20
2008,12,16,00,16,-8.20
2008,12,16,00,17,-8.20
2008,12,16,00,18,-8.20
2008,12,16,00,19,-8.20
2008,12,16,00,20,-8.20
2008,12,16,00,21,-8.20
2008,12,16,00,22,-8.20
2008,12,16,00,23,-8.20
2008,12,16,00,24,-8.20
2008,12,16,00,25,-8.20
2008,12,16,00,26,-8.30
2008,12,16,00,27,-8.30
2008,12,16,00,28,-8.30
2008,12,16,00,29,-8.30
2008,12,16,00,30,-8.30
2008,12,16,00,31,-8.30
2008,12,16,00,32,-8.30
2008,12,16,00,33,-8.30
2008,12,16,00,34,-8.30
2008,12,16,00,35,-8.30
2008,12,16,00,36,-8.30
2008,12,16,00,37,-8.30
2008,12,16,00,38,-8.30
2008,12,16,00,39,-8.30
2008,12,16,00,40,-8.30
2008,12,16,00,42,-8.30
2008,12,16,00,43,-8.30
2008,12,16,00,44,-8.30
2008,12,16,00,45,-8.30
2008,12,16,00,46,-8.30
2008,12,16,00,47,-8.30
2008,12,16,00,48,-8.30
2008,12,16,00,49,-8.30
2008,12,16,00,51,-8.40
2008,12,16,00,52,-8.40
2008,12,16,00,53,-8.40
2008,12,16,00,54,-8.40
2008,12,16,00,55,-8.40
2008,12,16,00,56,-8.40
2008,12,16,00,57,-8.40
2008,12,16,00,58,-8.40
2008,12,16,00,59,-8.40
2008,12,16,01,00,-8.40
2008,12,16,01,01,-8.40
2008,12,16,01,02,-8.40
2008,12,16,01,03,-8.40
2008,12,16,01,04,-8.40
2008,12,16,01,05,-8.40
2008,12,16,01,06,-8.40
2008,12,16,01,07,-8.40
2008,12,16,01,08,-8.40
2008,12,16,01,09,-8.40
2008,12,16,01,10,-8.40
2008,12,16,01,11,-8.40
2008,12,16,01,12,-8.40
2008,12,16,01,13,-8.40
2008,12,16,01,14,-8.40
2008,12,16,01,16,-8.40
2008,12,16,01,17,-8.40
2008,12,16,01,18,-8.40
2008,12,16,01,19,-8.40
2008,12,16,01,20,-8.30
2008,12,16,01,21,-8.30
2008,12,16,01,22,-8.40
2008,12,16,01,23,-8.40
2008,12,16,01,24,-8.40
2008,12,16,01,25,-8.40
2008,12,16,01,26,-8.40
2008,12,16,01,27,-8.40
2008,12,16,01,28,-8.40
2008,12,16,01,29,-8.40
2008,12,16,01,30,-8.40
2008,12,16,01,31,-8.40
2008,12,16,01,32,-8.40
2008,12,16,01,33,-8.50
2008,12,16,01,34,-8.50
2008,12,16,01,35,-8.50
2008,12,16,01,36,-8.50
2008,12,16,01,37,-8.50
2008,12,16,01,38,-8.60
2008,12,16,01,39,-8.50
2008,12,16,01,40,-8.60
2008,12,16,01,41,-8.60
2008,12,16,01,42,-8.60
2008,12,16,01,43,-8.60
2008,12,16,01,44,-8.60
2008,12,16,01,45,-8.60
2008,12,16,01,46,-8.60
2008,12,16,01,47,-8.60
2008,12,16,01,48,-8.60
2008,12,16,01,49,-8.60
2008,12,16,01,50,-8.60
2008,12,16,01,51,-8.60
2008,12,16,01,52,-8.60
2008,12,16,01,53,-8.60
2008,12,16,01,54,-8.60
2008,12,16,01,55,-8.70
2008,12,16,01,56,-8.60
2008,12,16,01,57,-8.70
2008,12,16,01,58,-8.70
2008,12,16,01,59,-8.60
2008,12,16,02,00,-8.60
2008,12,16,02,01,-8.60
2008,12,16,02,02,-8.60
2008,12,16,02,03,-8.60
2008,12,16,02,04,-8.60
2008,12,16,02,05,-8.60
2008,12,16,02,06,-8.50
2008,12,16,02,07,-8.60
2008,12,16,02,08,-8.60
2008,12,16,02,09,-8.50
2008,12,16,02,10,-8.60
2008,12,16,02,11,-8.60
2008,12,16,02,12,-8.60
2008,12,16,02,13,-8.60
2008,12,16,02,14,-8.60
2008,12,16,02,15,-8.60
2008,12,16,02,16,-8.60
2008,12,16,02,17,-8.60
2008,12,16,02,18,-8.60
2008,12,16,02,19,-8.60
2008,12,16,02,20,-8.70
2008,12,16,02,21,-8.70
2008,12,16,02,22,-8.70
2008,12,16,02,23,-8.70
2008,12,16,02,24,-8.70
2008,12,16,02,25,-8.70
2008,12,16,02,26,-8.70
2008,12,16,02,27,-8.70
2008,12,16,02,28,-8.80
2008,12,16,02,29,-8.80
2008,12,16,02,30,-8.80
2008,12,16,02,31,-8.80
2008,12,16,02,32,-8.80
2008,12,16,02,33,-8.80
2008,12,16,02,34,-8.80
2008,12,16,02,35,-8.80
2008,12,16,02,36,-8.80
2008,12,16,02,37,-8.80
2008,12,16,02,38,-8.80
2008,12,16,02,39,-8.80
2008,12,16,02,40,-8.80
2008,12,16,02,41,-8.80
2008,12,16,02,42,-8.80
2008,12,16,02,43,-8.80
2008,12,16,02,44,-8.80
2008,12,16,02,45,-8.80
2008,12,16,02,46,-8.90
2008,12,16,02,47,-8.90
2008,12,16,02,48,-8.90
2008,12,16,02,49,-8.90
2008,12,16,02,50,-8.90
2008,12,16,02,51,-8.90
2008,12,16,02,52,-8.90
2008,12,16,02,53,-8.90
2008,12,16,02,54,-8.90
2008,12,16,02,55,-8.90
2008,12,16,02,56,-8.90
2008,12,16,02,57,-8.90
2008,12,16,02,58,-8.90
2008,12,16,02,59,-8.90
2008,12,16,03,00,-8.90
2008,12,16,03,01,-8.90
2008,12,16,03,02,-8.90
2008,12,16,03,03,-8.90
2008,12,16,03,04,-8.90
2008,12,16,03,05,-8.90
2008,12,16,03,06,-8.90
2008,12,16,03,07,-8.90
2008,12,16,03,08,-8.90
2008,12,16,03,09,-8.90
2008,12,16,03,10,-8.90
2008,12,16,03,11,-8.80
2008,12,16,03,12,-8.80
2008,12,16,03,13,-8.80
2008,12,16,03,14,-8.70
2008,12,16,03,15,-8.70
2008,12,16,03,16,-8.70
2008,12,16,03,17,-8.70
2008,12,16,03,18,-8.60
2008,12,16,03,19,-8.60
2008,12,16,03,20,-8.60
2008,12,16,03,21,-8.60
2008,12,16,03,22,-8.60
2008,12,16,03,23,-8.60
2008,12,16,03,24,-8.60
2008,12,16,03,25,-8.50
2008,12,16,03,26,-8.50
2008,12,16,03,27,-8.50
2008,12,16,03,28,-8.50
2008,12,16,03,29,-8.50
2008,12,16,03,30,-8.50
2008,12,16,03,31,-8.60
2008,12,16,03,32,-8.50
2008,12,16,03,33,-8.60
2008,12,16,03,34,-8.60
2008,12,16,03,35,-8.60
2008,12,16,03,36,-8.60
2008,12,16,03,37,-8.60
2008,12,16,03,38,-8.60
2008,12,16,03,39,-8.60
2008,12,16,03,40,-8.60
2008,12,16,03,41,-8.60
2008,12,16,03,42,-8.60
2008,12,16,03,43,-8.60
2008,12,16,03,44,-8.60
2008,12,16,03,45,-8.60
2008,12,16,03,46,-8.60
2008,12,16,03,47,-8.60
2008,12,16,03,48,-8.60
2008,12,16,03,49,-8.60
2008,12,16,03,50,-8.70
2008,12,16,03,51,-8.70
2008,12,16,03,52,-8.70
2008,12,16,03,53,-8.70
2008,12,16,03,54,-8.70
2008,12,16,03,55,-8.70
2008,12,16,03,56,-8.70
2008,12,16,03,57,-8.80
2008,12,16,03,58,-8.80
2008,12,16,03,59,-8.80
2008,12,16,04,00,-8.80
2008,12,16,04,01,-8.80
2008,12,16,04,02,-8.80
2008,12,16,04,03,-8.80
2008,12,16,04,04,-8.80
2008,12,16,04,05,-8.80
2008,12,16,06,36,-8.80
2008,12,16,06,52,-8.80
2008,12,16,06,53,-8.80
2008,12,16,06,54,-8.80
2008,12,16,06,55,-8.80
2008,12,16,06,56,-8.80
2008,12,16,06,57,-8.80
2008,12,16,06,58,-8.90
2008,12,16,06,59,-8.90
2008,12,16,07,00,-8.90
2008,12,16,07,01,-8.90
2008,12,16,07,02,-8.90
2008,12,16,07,03,-8.90
2008,12,16,07,04,-8.90
2008,12,16,07,05,-9.00
2008,12,16,07,06,-9.00
2008,12,16,07,07,-9.10
2008,12,16,07,08,-9.10
2008,12,16,07,09,-9.10
2008,12,16,07,10,-9.10
2008,12,16,07,11,-9.10
2008,12,16,07,12,-9.10
2008,12,16,07,13,-9.20
2008,12,16,07,14,-9.20
2008,12,16,07,15,-9.20
2008,12,16,07,16,-9.20
2008,12,16,07,17,-9.20
2008,12,16,07,18,-9.20
2008,12,16,07,19,-9.20
2008,12,16,07,20,-9.20
2008,12,16,07,21,-9.20
2008,12,16,07,22,-9.20
2008,12,16,07,23,-9.30
2008,12,16,07,24,-9.30
2008,12,16,07,25,-9.30
2008,12,16,07,26,-9.30
2008,12,16,07,27,-9.30
2008,12,16,07,28,-9.30
2008,12,16,07,29,-9.30
2008,12,16,07,30,-9.30
2008,12,16,07,31,-9.30
2008,12,16,07,32,-9.30
2008,12,16,07,33,-9.20
2008,12,16,07,34,-9.20
2008,12,16,07,35,-9.20
2008,12,16,07,36,-9.20
2008,12,16,07,37,-9.20
2008,12,16,07,38,-9.20
2008,12,16,07,39,-9.20
2008,12,16,07,40,-9.20
2008,12,16,07,41,-9.20
2008,12,16,07,42,-9.20
2008,12,16,07,43,-9.20
2008,12,16,07,44,-9.20
2008,12,16,07,45,-9.20
2008,12,16,07,46,-9.20
2008,12,16,07,47,-9.20
2008,12,16,07,48,-9.20
2008,12,16,07,49,-9.20
2008,12,16,07,50,-9.20
2008,12,16,07,51,-9.20
2008,12,16,07,52,-9.20
2008,12,16,07,53,-9.10
2008,12,16,07,54,-9.20
2008,12,16,07,55,-9.10
2008,12,16,07,56,-9.20
2008,12,16,07,57,-9.20
2008,12,16,07,58,-9.20
2008,12,16,07,59,-9.20
2008,12,16,08,00,-9.20
2008,12,16,08,01,-9.20
2008,12,16,08,02,-9.20
2008,12,16,08,03,-9.20
2008,12,16,08,04,-9.20
2008,12,16,08,05,-9.20
2008,12,16,08,06,-9.20
2008,12,16,08,07,-9.20
2008,12,16,08,08,-9.20
2008,12,16,08,09,-9.20
2008,12,16,08,10,-9.20
2008,12,16,08,11,-9.20
2008,12,16,08,12,-9.20
2008,12,16,08,13,-9.20
2008,12,16,08,14,-9.20
2008,12,16,08,15,-9.20
2008,12,16,08,16,-9.20
2008,12,16,08,17,-9.20
2008,12,16,08,18,-9.20
2008,12,16,08,19,-9.20
2008,12,16,08,20,-9.20
2008,12,16,08,21,-9.20
2008,12,16,08,22,-9.20
2008,12,16,08,23,-9.20
2008,12,16,08,24,-9.20
2008,12,16,08,25,-9.20
2008,12,16,08,26,-9.20
2008,12,16,08,27,-9.20
2008,12,16,08,28,-9.20
2008,12,16,08,29,-9.20
2008,12,16,08,30,-9.20
2008,12,16,08,31,-9.20
2008,12,16,08,32,-9.20
2008,12,16,08,33,-9.20
2008,12,16,08,34,-9.20
2008,12,16,08,35,-9.20
2008,12,16,08,36,-9.20
2008,12,16,08,37,-9.20
2008,12,16,08,38,-9.20
2008,12,16,08,39,-9.20
2008,12,16,08,40,-9.20
2008,12,16,08,41,-9.20
2008,12,16,08,42,-9.20
2008,12,16,08,43,-9.20
2008,12,16,08,44,-9.20
2008,12,16,08,45,-9.20
2008,12,16,08,46,-9.20
2008,12,16,08,47,-9.20
2008,12,16,08,48,-9.20
2008,12,16,08,49,-9.20
2008,12,16,08,50,-9.10
2008,12,16,08,51,-9.10
2008,12,16,08,52,-9.10
2008,12,16,08,53,-9.10
2008,12,16,08,54,-9.10
2008,12,16,08,55,-9.10
2008,12,16,08,56,-9.10
2008,12,16,08,57,-9.10
2008,12,16,08,58,-9.10
2008,12,16,08,59,-9.00
2008,12,16,09,00,-9.00
2008,12,16,09,01,-9.00
2008,12,16,09,02,-8.90
2008,12,16,09,03,-8.90
2008,12,16,09,04,-8.90
2008,12,16,09,05,-8.90
2008,12,16,09,06,-8.90
2008,12,16,09,07,-8.90
2008,12,16,09,08,-8.90
2008,12,16,09,09,-8.80
2008,12,16,09,10,-8.80
2008,12,16,09,11,-8.80
2008,12,16,09,12,-8.80
2008,12,16,09,13,-8.80
2008,12,16,09,14,-8.70
2008,12,16,09,15,-8.70
2008,12,16,09,16,-8.70
2008,12,16,09,17,-8.70
2008,12,16,09,18,-8.70
2008,12,16,09,19,-8.70
2008,12,16,09,20,-8.60
2008,12,16,09,21,-8.60
2008,12,16,09,22,-8.60
2008,12,16,09,23,-8.60
2008,12,16,09,24,-8.40
2008,12,16,09,25,-8.40
2008,12,16,09,26,-8.40
2008,12,16,09,27,-8.30
2008,12,16,09,28,-8.30
2008,12,16,09,29,-8.30
2008,12,16,09,30,-8.20
2008,12,16,09,31,-8.20
2008,12,16,09,32,-8.10
2008,12,16,09,33,-8.10
2008,12,16,09,34,-8.10
2008,12,16,09,35,-8.10
2008,12,16,09,36,-8.00
2008,12,16,09,37,-8.00
2008,12,16,09,38,-7.90
2008,12,16,09,39,-7.90
2008,12,16,09,40,-7.90
2008,12,16,09,41,-7.90
2008,12,16,09,42,-7.80
2008,12,16,09,43,-7.80
2008,12,16,09,44,-7.80
2008,12,16,09,45,-7.80
2008,12,16,09,46,-7.70
2008,12,16,09,47,-7.70
2008,12,16,09,48,-7.70
2008,12,16,09,49,-7.70
2008,12,16,09,50,-7.60
2008,12,16,09,51,-7.50
2008,12,16,09,52,-7.40
2008,12,16,09,53,-7.40
2008,12,16,09,54,-7.30
2008,12,16,09,55,-7.30
2008,12,16,09,56,-7.20
2008,12,16,09,57,-7.10
2008,12,16,09,58,-7.10
2008,12,16,09,59,-7.00
2008,12,16,10,00,-6.90
2008,12,16,10,01,-6.80
2008,12,16,10,02,-6.80
2008,12,16,10,03,-6.80
2008,12,16,10,04,-6.70
2008,12,16,10,05,-6.70
2008,12,16,10,06,-6.60
2008,12,16,10,07,-6.60
2008,12,16,10,08,-6.50
2008,12,16,10,09,-6.40
2008,12,16,10,10,-6.30
2008,12,16,10,11,-6.30
2008,12,16,10,12,-6.20
2008,12,16,10,13,-6.20
2008,12,16,10,14,-6.10
2008,12,16,10,15,-6.10
2008,12,16,10,16,-6.10
2008,12,16,10,17,-6.10
2008,12,16,10,18,-6.10
2008,12,16,10,19,-6.10
2008,12,16,10,20,-6.10
2008,12,16,10,21,-6.10
2008,12,16,10,22,-6.10
2008,12,16,10,23,-6.10
2008,12,16,10,24,-6.10
2008,12,16,10,25,-6.10
2008,12,16,10,26,-6.10
2008,12,16,10,27,-6.10
2008,12,16,10,28,-6.00
2008,12,16,10,29,-6.00
2008,12,16,10,30,-6.00
2008,12,16,10,31,-6.00
2008,12,16,10,32,-5.90
2008,12,16,10,33,-5.90
2008,12,16,10,34,-5.90
2008,12,16,10,35,-5.90
2008,12,16,10,36,-5.80
2008,12,16,10,37,-5.80
2008,12,16,10,38,-5.80
2008,12,16,10,39,-5.70
2008,12,16,10,40,-5.70
2008,12,16,10,41,-5.70
2008,12,16,10,42,-5.60
2008,12,16,10,43,-5.50
2008,12,16,10,44,-5.40
2008,12,16,10,45,-5.30
2008,12,16,10,46,-5.30
2008,12,16,10,47,-5.20
2008,12,16,10,48,-5.10
2008,12,16,10,49,-5.00
2008,12,16,10,50,-4.90
2008,12,16,10,51,-4.80
2008,12,16,10,52,-4.80
2008,12,16,10,53,-4.70
2008,12,16,10,54,-4.70
2008,12,16,10,55,-4.60
2008,12,16,10,56,-4.50
2008,12,16,10,57,-4.50
2008,12,16,10,58,-4.40
2008,12,16,10,59,-4.40
2008,12,16,11,00,-4.30
2008,12,16,11,01,-4.30
2008,12,16,11,02,-4.20
2008,12,16,11,03,-4.20
2008,12,16,11,04,-4.20
2008,12,16,11,05,-4.10
2008,12,16,11,06,-4.10
2008,12,16,11,07,-4.00
2008,12,16,11,08,-3.90
2008,12,16,11,09,-3.90
2008,12,16,11,10,-3.90
2008,12,16,11,11,-3.90
2008,12,16,11,12,-3.80
2008,12,16,11,13,-3.80
2008,12,16,11,14,-3.80
2008,12,16,11,15,-3.80
2008,12,16,11,16,-3.80
2008,12,16,11,17,-3.80
2008,12,16,11,18,-3.80
2008,12,16,11,19,-3.80
2008,12,16,11,20,-3.80
2008,12,16,11,21,-3.80
2008,12,16,11,22,-3.80
2008,12,16,11,23,-3.90
2008,12,16,11,24,-3.90
2008,12,16,11,25,-3.90
2008,12,16,11,26,-4.00
2008,12,16,11,27,-4.00
2008,12,16,11,28,-4.10
2008,12,16,11,29,-4.10
2008,12,16,11,30,-4.10
2008,12,16,11,31,-4.20
2008,12,16,11,32,-4.20
2008,12,16,11,33,-4.20
2008,12,16,11,34,-4.30
2008,12,16,11,35,-4.30
2008,12,16,11,36,-4.30
2008,12,16,11,37,-4.40
2008,12,16,11,38,-4.40
2008,12,16,11,39,-4.40
2008,12,16,11,40,-4.40
2008,12,16,11,41,-4.40
2008,12,16,11,42,-4.40
2008,12,16,11,43,-4.40
2008,12,16,11,44,-4.40
2008,12,16,11,45,-4.40
2008,12,16,11,46,-4.50
2008,12,16,11,47,-4.50
2008,12,16,11,48,-4.50
2008,12,16,11,49,-4.50
2008,12,16,11,50,-4.50
2008,12,16,11,51,-4.50
2008,12,16,11,52,-4.40
2008,12,16,11,53,-4.40
2008,12,16,11,54,-4.40
2008,12,16,11,55,-4.40
2008,12,16,11,56,-4.40
2008,12,16,11,57,-4.30
2008,12,16,11,58,-4.30
2008,12,16,11,59,-4.30
2008,12,16,12,00,-4.30
2008,12,16,12,01,-4.30
2008,12,16,12,02,-4.20
2008,12,16,12,03,-4.20
2008,12,16,12,04,-4.20
2008,12,16,12,05,-4.10
2008,12,16,12,06,-4.10
2008,12,16,12,07,-4.00
2008,12,16,12,08,-3.90
2008,12,16,12,09,-3.80
2008,12,16,12,10,-3.80
2008,12,16,12,11,-3.70
2008,12,16,12,12,-3.70
2008,12,16,12,13,-3.60
2008,12,16,12,14,-3.50
2008,12,16,12,15,-3.40
2008,12,16,12,16,-3.40
2008,12,16,12,17,-3.30
2008,12,16,12,18,-3.30
2008,12,16,12,19,-3.20
2008,12,16,12,20,-3.20
2008,12,16,12,21,-3.10
2008,12,16,12,22,-3.10
2008,12,16,12,23,-3.00
2008,12,16,12,24,-3.00
2008,12,16,12,25,-2.90
2008,12,16,12,26,-2.90
2008,12,16,12,27,-2.90
2008,12,16,12,28,-2.80
2008,12,16,12,29,-2.80
2008,12,16,12,30,-2.80
2008,12,16,12,31,-2.70
2008,12,16,12,32,-2.70
2008,12,16,12,33,-2.70
2008,12,16,12,34,-2.70
2008,12,16,12,35,-2.60
2008,12,16,12,36,-2.60
2008,12,16,12,37,-2.60
2008,12,16,12,38,-2.60
2008,12,16,12,39,-2.60
2008,12,16,12,40,-2.60
2008,12,16,12,41,-2.70
2008,12,16,12,42,-2.70
2008,12,16,12,43,-2.70
2008,12,16,12,44,-2.70
2008,12,16,12,45,-2.70
2008,12,16,12,46,-2.70
2008,12,16,12,47,-2.70
2008,12,16,12,48,-2.70
2008,12,16,12,49,-2.70
2008,12,16,12,50,-2.80
2008,12,16,12,51,-2.80
2008,12,16,12,52,-2.80
2008,12,16,12,53,-2.70
2008,12,16,12,54,-2.70
2008,12,16,12,55,-2.70
2008,12,16,12,56,-2.70
2008,12,16,12,57,-2.70
2008,12,16,12,58,-2.70
2008,12,16,12,59,-2.70
2008,12,16,13,00,-2.70
2008,12,16,13,01,-2.60
2008,12,16,13,02,-2.60
2008,12,16,13,03,-2.60
2008,12,16,13,04,-2.70
2008,12,16,13,05,-2.70
2008,12,16,13,06,-2.70
2008,12,16,13,07,-2.70
2008,12,16,13,08,-2.70
2008,12,16,13,09,-2.70
2008,12,16,13,10,-2.70
2008,12,16,13,11,-2.70
2008,12,16,13,12,-2.70
2008,12,16,13,13,-2.70
2008,12,16,13,14,-2.60
2008,12,16,13,15,-2.60
2008,12,16,13,16,-2.70
2008,12,16,13,17,-2.70
2008,12,16,13,18,-2.70
2008,12,16,13,19,-2.70
2008,12,16,13,20,-2.70
2008,12,16,13,21,-2.70
2008,12,16,13,22,-2.70
2008,12,16,13,23,-2.70
2008,12,16,13,24,-2.70
2008,12,16,13,25,-2.70
2008,12,16,13,26,-2.70
2008,12,16,13,27,-2.70
2008,12,16,13,28,-2.70
2008,12,16,13,29,-2.60
2008,12,16,13,30,-2.60
2008,12,16,13,31,-2.60
2008,12,16,13,32,-2.50
2008,12,16,13,33,-2.50
2008,12,16,13,34,-2.40
2008,12,16,13,35,-2.40
2008,12,16,13,36,-2.40
2008,12,16,13,37,-2.30
2008,12,16,13,38,-2.30
2008,12,16,13,39,-2.30
2008,12,16,13,40,-2.30
2008,12,16,13,41,-2.30
2008,12,16,13,42,-2.30
2008,12,16,13,43,-2.20
2008,12,16,13,44,-2.20
2008,12,16,13,45,-2.20
2008,12,16,13,46,-2.20
2008,12,16,13,47,-2.20
2008,12,16,13,48,-2.10
2008,12,16,13,49,-2.10
2008,12,16,13,50,-2.10
2008,12,16,13,51,-2.10
2008,12,16,13,52,-2.00
2008,12,16,13,53,-2.00
2008,12,16,13,54,-2.00
2008,12,16,13,55,-1.90
2008,12,16,13,56,-1.90
2008,12,16,13,57,-1.90
2008,12,16,13,58,-1.80
2008,12,16,13,59,-1.80
2008,12,16,14,00,-1.80
2008,12,16,14,01,-1.70
2008,12,16,14,02,-1.70
2008,12,16,14,03,-1.60
2008,12,16,14,04,-1.60
2008,12,16,14,05,-1.50
2008,12,16,14,06,-1.40
2008,12,16,14,07,-1.40
2008,12,16,14,08,-1.30
2008,12,16,14,09,-1.30
2008,12,16,14,10,-1.20
2008,12,16,14,11,-1.20
2008,12,16,14,12,-1.20
2008,12,16,14,13,-1.20
2008,12,16,14,14,-1.30
2008,12,16,14,15,-1.30
2008,12,16,14,16,-1.30
2008,12,16,14,17,-1.40
2008,12,16,14,18,-1.40
2008,12,16,14,19,-1.40
2008,12,16,14,20,-1.40
2008,12,16,14,21,-1.40
2008,12,16,14,22,-1.40
2008,12,16,14,23,-1.40
2008,12,16,14,24,-1.40
2008,12,16,14,25,-1.40
2008,12,16,14,26,-1.40
2008,12,16,14,27,-1.40
2008,12,16,14,28,-1.40
2008,12,16,14,29,-1.40
2008,12,16,14,30,-1.40
2008,12,16,14,31,-1.40
2008,12,16,14,32,-1.40
2008,12,16,14,33,-1.40
2008,12,16,14,34,-1.40
2008,12,16,14,35,-1.40
2008,12,16,14,36,-1.40
2008,12,16,14,37,-1.30
2008,12,16,14,38,-1.30
2008,12,16,14,39,-1.30
2008,12,16,14,40,-1.30
2008,12,16,14,41,-1.30
2008,12,16,14,42,-1.30
2008,12,16,14,43,-1.40
2008,12,16,14,44,-1.40
2008,12,16,14,45,-1.30
2008,12,16,14,46,-1.40
2008,12,16,14,47,-1.40
2008,12,16,14,48,-1.40
2008,12,16,14,49,-1.40
2008,12,16,14,50,-1.40
2008,12,16,14,51,-1.40
2008,12,16,14,52,-1.40
2008,12,16,14,53,-1.40
2008,12,16,14,54,-1.50
2008,12,16,14,55,-1.40
2008,12,16,14,56,-1.40
2008,12,16,14,57,-1.40
2008,12,16,14,58,-1.40
2008,12,16,14,59,-1.40
2008,12,16,15,00,-1.40
2008,12,16,15,01,-1.40
2008,12,16,15,02,-1.40
2008,12,16,15,03,-1.40
2008,12,16,15,04,-1.40
2008,12,16,15,05,-1.40
2008,12,16,15,06,-1.40
2008,12,16,15,07,-1.40
2008,12,16,15,08,-1.40
2008,12,16,15,09,-1.40
2008,12,16,15,10,-1.40
2008,12,16,15,11,-1.40
2008,12,16,15,12,-1.40
2008,12,16,15,13,-1.40
2008,12,16,15,14,-1.40
2008,12,16,15,15,-1.40
2008,12,16,15,16,-1.40
2008,12,16,15,17,-1.40
2008,12,16,15,18,-1.40
2008,12,16,15,19,-1.50
2008,12,16,15,20,-1.50
2008,12,16,15,21,-1.50
2008,12,16,15,22,-1.50
2008,12,16,15,23,-1.60
2008,12,16,15,24,-1.60
2008,12,16,15,25,-1.60
2008,12,16,15,26,-1.60
2008,12,16,15,27,-1.60
2008,12,16,15,28,-1.60
2008,12,16,15,29,-1.60
2008,12,16,15,30,-1.60
2008,12,16,15,31,-1.60
2008,12,16,15,32,-1.60
2008,12,16,15,33,-1.60
2008,12,16,15,34,-1.60
2008,12,16,15,35,-1.60
2008,12,16,15,36,-1.60
2008,12,16,15,37,-1.60
2008,12,16,15,38,-1.60
2008,12,16,15,39,-1.70
2008,12,16,15,40,-1.70
2008,12,16,15,41,-1.70
2008,12,16,15,42,-1.70
2008,12,16,15,43,-1.70
2008,12,16,15,44,-1.70
2008,12,16,15,45,-1.70
2008,12,16,15,46,-1.70
2008,12,16,15,47,-1.70
2008,12,16,15,48,-1.70
2008,12,16,15,49,-1.80
2008,12,16,15,50,-1.80
2008,12,16,15,51,-1.80
2008,12,16,15,52,-1.80
2008,12,16,15,53,-1.80
2008,12,16,15,54,-1.80
2008,12,16,15,55,-1.80
2008,12,16,15,56,-1.80
2008,12,16,15,57,-1.80
2008,12,16,15,58,-1.80
2008,12,16,15,59,-1.80
2008,12,16,16,00,-1.80
2008,12,16,16,02,-1.80
2008,12,16,16,03,-1.80
2008,12,16,16,04,-1.80
2008,12,16,16,05,-1.90
2008,12,16,16,07,-1.80
2008,12,16,16,08,-1.80
2008,12,16,16,09,-1.90
2008,12,16,16,10,-1.90
2008,12,16,16,11,-1.90
2008,12,16,16,12,-1.90
2008,12,16,16,13,-1.90
2008,12,16,16,14,-1.90
2008,12,16,16,15,-1.90
2008,12,16,16,16,-1.90
2008,12,16,16,17,-1.90
2008,12,16,16,18,-1.90
2008,12,16,16,19,-1.90
2008,12,16,16,20,-1.90
2008,12,16,16,21,-1.90
2008,12,16,16,22,-1.90
2008,12,16,16,23,-1.90
2008,12,16,16,24,-1.90
2008,12,16,16,25,-1.90
2008,12,16,16,26,-2.00
2008,12,16,16,27,-2.00
2008,12,16,16,28,-2.00
2008,12,16,16,29,-2.00
2008,12,16,16,30,-2.00
2008,12,16,16,31,-2.00
2008,12,16,16,32,-2.00
2008,12,16,16,33,-2.00
2008,12,16,16,34,-2.00
2008,12,16,16,35,-2.10
2008,12,16,16,36,-2.10
2008,12,16,16,37,-2.10
2008,12,16,16,38,-2.10
2008,12,16,16,39,-2.10
2008,12,16,16,40,-2.10
2008,12,16,16,41,-2.10
2008,12,16,16,42,-2.10
2008,12,16,16,43,-2.10
2008,12,16,16,44,-2.10
2008,12,16,16,45,-2.10
2008,12,16,16,46,-2.10
2008,12,16,16,47,-2.10
2008,12,16,16,48,-2.10
2008,12,16,16,49,-2.10
2008,12,16,16,50,-2.10
2008,12,16,16,51,-2.10
2008,12,16,16,52,-2.20
2008,12,16,16,53,-2.20
2008,12,16,16,54,-2.20
2008,12,16,16,55,-2.20
2008,12,16,16,56,-2.20
2008,12,16,16,57,-2.20
2008,12,16,16,58,-2.20
2008,12,16,16,59,-2.20
2008,12,16,17,00,-2.20
2008,12,16,17,01,-2.20
2008,12,16,17,02,-2.20
2008,12,16,17,03,-2.20
2008,12,16,17,04,-2.20
2008,12,16,17,05,-2.20
2008,12,16,17,06,-2.20
2008,12,16,17,07,-2.20
2008,12,16,17,08,-2.20
2008,12,16,17,09,-2.20
2008,12,16,17,10,-2.20
2008,12,16,17,11,-2.20
2008,12,16,17,12,-2.20
2008,12,16,17,13,-2.20
2008,12,16,17,14,-2.20
2008,12,16,17,15,-2.20
2008,12,16,17,16,-2.30
2008,12,16,17,17,-2.20
2008,12,16,17,18,-2.20
2008,12,16,17,19,-2.20
2008,12,16,17,20,-2.20
2008,12,16,17,21,-2.20
2008,12,16,17,22,-2.20
2008,12,16,17,23,-2.20
2008,12,16,17,24,-2.20
2008,12,16,17,25,-2.20
2008,12,16,17,26,-2.20
2008,12,16,17,27,-2.20
2008,12,16,17,28,-2.20
2008,12,16,17,29,-2.30
2008,12,16,17,30,-2.30
2008,12,16,17,31,-2.30
2008,12,16,17,32,-2.30
2008,12,16,17,33,-2.20
2008,12,16,17,34,-2.30
2008,12,16,17,35,-2.30
2008,12,16,17,36,-2.20
2008,12,16,17,37,-2.30
2008,12,16,17,38,-2.30
2008,12,16,17,39,-2.30
2008,12,16,17,40,-2.30
2008,12,16,17,41,-2.30
2008,12,16,17,42,-2.30
2008,12,16,17,43,-2.30
2008,12,16,17,44,-2.30
2008,12,16,17,45,-2.30
2008,12,16,17,46,-2.30
2008,12,16,17,47,-2.30
2008,12,16,17,48,-2.30
2008,12,16,17,49,-2.30
2008,12,16,17,50,-2.30
2008,12,16,17,51,-2.30
2008,12,16,17,52,-2.30
2008,12,16,17,53,-2.30
2008,12,16,17,54,-2.30
2008,12,16,17,55,-2.30
2008,12,16,17,56,-2.30
2008,12,16,17,57,-2.30
2008,12,16,17,58,-2.30
2008,12,16,17,59,-2.30
2008,12,16,18,00,-2.30
2008,12,16,18,01,-2.30
2008,12,16,18,02,-2.30
2008,12,16,18,03,-2.30
2008,12,16,18,04,-2.30
2008,12,16,18,05,-2.30
2008,12,16,18,06,-2.30
2008,12,16,18,07,-2.30
2008,12,16,18,08,-2.30
2008,12,16,18,09,-2.30
2008,12,16,18,10,-2.30
2008,12,16,18,11,-2.30
2008,12,16,18,12,-2.30
2008,12,16,18,13,-2.30
2008,12,16,18,14,-2.30
2008,12,16,18,15,-2.30
2008,12,16,18,16,-2.30
2008,12,16,18,17,-2.30
2008,12,16,18,18,-2.30
2008,12,16,18,19,-2.30
2008,12,16,18,20,-2.30
2008,12,16,18,21,-2.30
2008,12,16,18,22,-2.30
2008,12,16,18,23,-2.30
2008,12,16,18,24,-2.30
2008,12,16,18,25,-2.30
2008,12,16,18,26,-2.30
2008,12,16,18,27,-2.30
2008,12,16,18,28,-2.20
2008,12,16,18,29,-2.20
2008,12,16,18,30,-2.20
2008,12,16,18,31,-2.20
2008,12,16,18,32,-2.20
2008,12,16,18,33,-2.20
2008,12,16,18,34,-2.20
2008,12,16,18,35,-2.20
2008,12,16,18,36,-2.20
2008,12,16,18,37,-2.20
2008,12,16,18,38,-2.20
2008,12,16,18,39,-2.20
2008,12,16,18,40,-2.20
2008,12,16,18,41,-2.20
2008,12,16,18,42,-2.20
2008,12,16,18,43,-2.30
2008,12,16,18,44,-2.20
2008,12,16,18,45,-2.20
2008,12,16,18,46,-2.20
2008,12,16,18,47,-2.20
2008,12,16,18,48,-2.20
2008,12,16,18,49,-2.20
2008,12,16,18,50,-2.20
2008,12,16,18,51,-2.20
2008,12,16,18,52,-2.20
2008,12,16,18,53,-2.20
2008,12,16,18,54,-2.20
2008,12,16,18,55,-2.20
2008,12,16,18,56,-2.20
2008,12,16,18,57,-2.20
2008,12,16,18,58,-2.20
2008,12,16,18,59,-2.20
2008,12,16,19,00,-2.20
2008,12,16,19,01,-2.20
2008,12,16,19,02,-2.20
2008,12,16,19,03,-2.20
2008,12,16,19,04,-2.20
2008,12,16,19,05,-2.10
2008,12,16,19,06,-2.10
2008,12,16,19,07,-2.10
2008,12,16,19,08,-2.10
2008,12,16,19,09,-2.10
2008,12,16,19,10,-2.10
2008,12,16,19,11,-2.10
2008,12,16,19,12,-2.10
2008,12,16,19,13,-2.10
2008,12,16,19,14,-2.10
2008,12,16,19,15,-2.10
2008,12,16,19,16,-2.10
2008,12,16,19,17,-2.10
2008,12,16,19,18,-2.10
2008,12,16,19,19,-2.20
2008,12,16,19,20,-2.20
2008,12,16,19,21,-2.20
2008,12,16,19,22,-2.20
2008,12,16,19,23,-2.20
2008,12,16,19,24,-2.20
2008,12,16,19,25,-2.20
2008,12,16,19,26,-2.20
2008,12,16,19,27,-2.20
2008,12,16,19,28,-2.20
2008,12,16,19,29,-2.20
2008,12,16,19,30,-2.20
2008,12,16,19,31,-2.20
2008,12,16,19,32,-2.20
2008,12,16,19,33,-2.20
2008,12,16,19,34,-2.20
2008,12,16,19,35,-2.20
2008,12,16,19,36,-2.20
2008,12,16,19,37,-2.20
2008,12,16,19,38,-2.20
2008,12,16,19,39,-2.20
2008,12,16,19,40,-2.20
2008,12,16,19,41,-2.20
2008,12,16,19,42,-2.20
2008,12,16,19,43,-2.20
2008,12,16,19,44,-2.10
2008,12,16,19,45,-2.10
2008,12,16,19,46,-2.10
2008,12,16,19,47,-2.10
2008,12,16,19,48,-2.10
2008,12,16,19,49,-2.10
2008,12,16,19,50,-2.10
2008,12,16,19,51,-2.10
2008,12,16,19,52,-2.10
2008,12,16,19,53,-2.10
2008,12,16,19,54,-2.10
2008,12,16,19,55,-2.10
2008,12,16,19,56,-2.10
2008,12,16,19,57,-2.10
2008,12,16,19,58,-2.10
2008,12,16,19,59,-2.10
2008,12,16,20,00,-2.10
2008,12,16,20,01,-2.10
2008,12,16,20,02,-2.10
2008,12,16,20,03,-2.10
2008,12,16,20,04,-2.10
2008,12,16,20,05,-2.10
2008,12,16,20,06,-2.10
2008,12,16,20,07,-2.10
2008,12,16,20,08,-2.10
2008,12,16,20,09,-2.10
2008,12,16,20,10,-2.10
2008,12,16,20,11,-2.10